Location: Goettingen
(51.5300°N, 9.9433°E)
Time: 14:45:05
(UTC+02:00)

Envisat - Visible Passes

Search period start: 13 May 2025 00:00
Search period end: 23 May 2025 00:00
Orbit: 761 x 763 km, 98.3° (Epoch: 12 May)

Date Brightness Start Highest point End Pass type
(mag) Time Alt. Az. Time Alt. Az. Time Alt. Az.
13 May 5.7 02:38:17 10° ENE 02:39:17 10° E 02:40:16 10° E visible
13 May 3.3 04:14:09 10° NNE 04:19:13 66° ESE 04:24:15 10° S visible
14 May 4.4 03:36:45 10° NNE 03:41:20 33° E 03:45:53 10° SSE visible
15 May 5.3 02:59:59 10° NE 03:03:15 17° E 03:06:30 10° SE visible
15 May 3.0 04:37:44 10° NNE 04:42:50 81° WNW 04:47:54 10° SSW visible
16 May 3.7 04:00:08 10° NNE 04:05:05 51° E 04:10:01 10° S visible
17 May 4.8 03:22:54 10° NE 03:27:08 26° E 03:31:20 10° SSE visible
18 May 5.5 02:46:39 10° ENE 02:48:57 13° E 02:51:15 10° ESE visible
18 May 3.1 04:23:39 10° NNE 04:28:45 79° ESE 04:33:49 10° SSW visible
19 May 4.2 03:46:09 10° NNE 03:50:55 39° E 03:55:40 10° SSE visible
20 May 5.1 03:09:09 10° NE 03:12:53 20° E 03:16:36 10° SE visible
21 May 3.5 04:09:35 10° NNE 04:14:38 61° ESE 04:19:38 10° S visible
22 May 4.6 03:32:14 10° NNE 03:36:44 31° E 03:41:11 10° SSE visible
